Swansboro, NC

10:08 AM EDT on July 28, 2017 (GMT -0400)
Bogue McAlf

Weather History for KNJM - December, 2012

Change the Weather History Date:

Monday, December 10, 2012

  Actual Average (KNKT) Record (KNKT)
Temperature  
Mean Temperature 63 °F -  
Max Temperature 66 °F 57 °F 75 °F (2007)
Min Temperature 60 °F 39 °F 25 °F (2006)
Degree Days  
Heating Degree Days 2    
Growing Degree Days 13 (Base 50)    
Moisture  
Dew Point 62 °F    
Average Humidity 95    
Maximum Humidity 100    
Minimum Humidity 90    
Precipitation  
Precipitation 0.08 in - - ()
Sea Level Pressure  
Sea Level Pressure 29.87 in    
Wind  
Wind Speed 8 mph (SW)    
Max Wind Speed 16 mph    
Max Gust Speed 26 mph    
Visibility 5 miles    
Events Fog , Rain    
Averages and records for this station are not official NWS values.
T = Trace of Precipitation, MM = Missing Value Source: NWS Daily Summary

Daily Weather History Graph

Daily Weather History Graph

Search for Another Location

Airport or City:

Trip Planner

Search our weather history database for the weather conditions in past years. The results will help you decide how hot, cold, wet, or windy it might be!

Date:

Astronomy

Dec. 10, 2012 Rise Set
Actual Time 7:04 AM EST 4:57 PM EST
Civil Twilight 6:36 AM EST 5:25 PM EST
Nautical Twilight 6:05 AM EST 5:56 PM EST
Astronomical Twilight 5:34 AM EST 6:27 PM EST
Moon 3:50 AM EST (12/10) 2:41 PM EST (12/10)
Length of Visible Light 10h 48m
Length of Day
9h 52m
Waning Crescent, 10% of the Moon is Illuminated
Dec 10
Waning Crescent
Dec 13
New
Dec 20
First Quarter
Dec 28
Full
Jan 4
Last Quarter

Hourly Weather History & Observations

Time (EST) Temp. Dew Point Humidity Pressure Visibility Wind Dir Wind Speed Gust Speed Precip Events Conditions
12:57 AM 64.9 °F 63.0 °F 93% 30.02 in 10.0 mi SSE 6.9 mph - 0.00 in   Overcast
1:57 AM 66.0 °F 64.0 °F 93% 30.00 in 10.0 mi South 10.4 mph - 0.01 in Rain Light Rain
2:57 AM 64.0 °F 62.1 °F 93% 29.99 in 7.0 mi SSW 8.1 mph - 0.01 in Rain Rain
3:42 AM 64.4 °F 62.6 °F 94% 29.96 in 7.0 mi SSW 6.9 mph - 0.01 in Rain Light Rain
3:57 AM 64.9 °F 64.0 °F 97% 29.96 in 3.0 mi SSW 9.2 mph - 0.05 in Rain Rain
4:03 AM 64.4 °F 64.4 °F 100% 29.95 in 2.0 mi South 9.2 mph - 0.03 in Rain Heavy Rain
4:15 AM 64.4 °F 64.4 °F 100% 29.94 in 3.0 mi SSW 6.9 mph - 0.06 in Rain Light Rain
5:34 AM 64.4 °F 64.4 °F 100% 29.89 in 8.0 mi Calm Calm - 0.00 in   Overcast
5:41 AM 64.4 °F 64.4 °F 100% 29.89 in 7.0 mi ESE 3.5 mph - 0.00 in   Overcast
5:50 AM 64.4 °F 64.4 °F 100% 29.90 in 5.0 mi Calm Calm - 0.01 in   Overcast
5:57 AM 64.9 °F 64.0 °F 97% 29.91 in 5.0 mi ESE 3.5 mph - 0.01 in   Overcast
6:57 AM 64.0 °F 63.0 °F 96% 29.88 in 7.0 mi ESE 5.8 mph - 0.00 in Rain Light Rain
7:10 AM 64.4 °F 62.6 °F 94% 29.87 in 5.0 mi Calm Calm - 0.00 in   Overcast
7:24 AM 64.4 °F 64.4 °F 100% 29.87 in 4.0 mi Calm Calm - 0.00 in   Overcast
7:33 AM 64.4 °F 64.4 °F 100% 29.87 in 5.0 mi Calm Calm - 0.00 in   Overcast
7:57 AM 64.9 °F 63.0 °F 93% 29.88 in 6.0 mi SW 5.8 mph - 0.00 in   Overcast
8:05 AM 64.4 °F 62.6 °F 94% 29.88 in 2.5 mi SW 6.9 mph - N/A   Overcast
8:20 AM 62.6 °F 62.6 °F 100% 29.88 in 0.5 mi WSW 5.8 mph - N/A Fog Fog
8:27 AM 64.4 °F 62.6 °F 94% 29.88 in 0.5 mi WSW 5.8 mph - N/A Fog Fog
8:28 AM 64.4 °F 62.6 °F 94% 29.88 in 0.2 mi WSW 4.6 mph - N/A Fog Fog
9:04 AM 64.4 °F 62.6 °F 94% 29.89 in 2.0 mi WSW 8.1 mph - N/A   Overcast
9:12 AM 64.4 °F 62.6 °F 94% 29.89 in 5.0 mi WSW 6.9 mph - N/A   Overcast
9:40 AM 64.4 °F 62.6 °F 94% 29.89 in 9.0 mi WSW 8.1 mph - N/A   Overcast
9:57 AM 64.0 °F 63.0 °F 96% 29.90 in 6.0 mi SW 6.9 mph - N/A   Overcast
10:21 AM 64.4 °F 64.4 °F 100% 29.88 in 10.0 mi SW 8.1 mph - N/A   Overcast
10:39 AM 66.2 °F 64.4 °F 94% 29.89 in 9.0 mi SW 8.1 mph - N/A   Overcast
10:57 AM 66.0 °F 64.0 °F 93% 29.89 in 10.0 mi SW 10.4 mph - N/A   Overcast
11:57 AM 66.0 °F 63.0 °F 90% 29.87 in 10.0 mi SW 9.2 mph - N/A   Overcast
12:57 PM 62.1 °F 60.1 °F 93% 29.85 in 0.8 mi SW 10.4 mph - N/A   Overcast
1:57 PM 62.1 °F 60.1 °F 93% 29.83 in 2.0 mi SW 13.8 mph 20.7 mph N/A   Overcast
2:04 PM 62.6 °F 60.8 °F 94% 29.82 in 1.2 mi SW 12.7 mph 20.7 mph N/A   Overcast
2:14 PM 62.6 °F 60.8 °F 94% 29.81 in 3.0 mi SW 11.5 mph - N/A   Overcast
2:33 PM 62.6 °F 60.8 °F 94% 29.81 in 7.0 mi SW 13.8 mph 20.7 mph N/A   Mostly Cloudy
2:49 PM 62.6 °F 60.8 °F 94% 29.81 in 6.0 mi SSW 16.1 mph 21.9 mph N/A   Mostly Cloudy
2:57 PM 64.0 °F 61.0 °F 90% 29.83 in 7.0 mi SW 15.0 mph 21.9 mph N/A   Mostly Cloudy
3:18 PM 62.6 °F 60.8 °F 94% 29.81 in 1.0 mi SSW 15.0 mph 26.5 mph N/A   Mostly Cloudy
3:22 PM 62.6 °F 60.8 °F 94% 29.81 in 0.8 mi SSW 13.8 mph 25.3 mph N/A   Mist
3:45 PM 62.6 °F 60.8 °F 94% 29.81 in 1.5 mi SSW 13.8 mph 21.9 mph N/A   Overcast
3:52 PM 62.6 °F 60.8 °F 94% 29.81 in 3.0 mi SW 12.7 mph 20.7 mph N/A   Mostly Cloudy
3:57 PM 62.1 °F 60.1 °F 93% 29.82 in 5.0 mi SW 12.7 mph 20.7 mph N/A   Mostly Cloudy
4:57 PM 62.1 °F 60.1 °F 93% 29.83 in 8.0 mi SW 13.8 mph 21.9 mph N/A   Mostly Cloudy
5:30 PM 60.8 °F 59.0 °F 94% 29.82 in 1.8 mi SW 15.0 mph 21.9 mph N/A   Mostly Cloudy
5:47 PM 60.8 °F 60.8 °F 100% 29.82 in 0.8 mi SW 13.8 mph 25.3 mph N/A   Overcast
5:57 PM 61.0 °F 60.1 °F 97% 29.83 in 1.5 mi SW 13.8 mph 21.9 mph N/A   Overcast
6:15 PM 60.8 °F 60.8 °F 100% 29.82 in 4.0 mi SW 12.7 mph 20.7 mph N/A   Overcast
6:57 PM 61.0 °F 59.0 °F 93% 29.83 in 5.0 mi SW 9.2 mph 19.6 mph N/A   Overcast
7:04 PM 60.8 °F 59.0 °F 94% 29.83 in 5.0 mi SW 10.4 mph 19.6 mph N/A   Clear
7:57 PM 61.0 °F 59.0 °F 93% 29.84 in 7.0 mi SW 9.2 mph - N/A   Clear
8:57 PM 61.0 °F 59.0 °F 93% 29.83 in 6.0 mi SW 9.2 mph - N/A   Clear
9:57 PM 62.1 °F 59.0 °F 90% 29.82 in 8.0 mi SW 6.9 mph - N/A   Clear
10:57 PM 63.0 °F 60.1 °F 90% 29.84 in 8.0 mi SW 6.9 mph - N/A   Clear
11:57 PM 63.0 °F 61.0 °F 93% 29.83 in 6.0 mi SW 6.9 mph - N/A   Clear